Probability
0 0 0 0 0 0 0 0 0 0 0 0 0 0 0 0 0 0 0 0 0 0 0 0 0 0 0 0 0 1 2 2 1 2 3 3 3 3
0 0 0 0 0 0 0 0 0 0 0 0 0 0 0 0 0 0 0 0 0 0 0 0 0 0 0 0 0 0 1 1 0 1 2 2 2 2
0 0 0 0 0 0 0 0 0 0 0 0 0 0 0 0 0 0 0 0 0 0 0 0 0 0 0 0 0 0 0 0 0 0 1 1 1 1
0 0 0 0 0 0 0 0 0 0 0 0 0 0 0 0 0 0 0 0 0 0 0 0 0 0 0 0 0 0 0 0 0 0 0 0 0 0
0 0 0 0 0 0 0 0 0 0 0 0 0 0 0 0 0 0 0 0 0 0 0 0 0 0 0 0 0 0 0 0 0 0 0 0 0 0
0 0 0 0 0 0 0 0 0 0 0 0 0 0 0 0 0 0 0 0 0 0 0 0 0 0 0 0 0 0 0 0 0 0 0 0 0 0
0 0 0 0 0 0 0 0 0 0 0 0 0 0 0 0 0 0 0 0 0 0 0 0 0 0 0 0 0 0 0 0 0 0 0 0 0 0
0 0 0 0 0 0 0 0 0 0 0 0 0 0 0 0 0 0 0 0 0 0 0 0 0 0 0 0 0 0 0 0 0 0 0 0 0 0
0 0 0 0 0 0 0 0 0 0 0 0 0 0 0 0 0 0 0 0 0 0 0 0 0 0 0 0 0 0 0 0 0 0 0 0 0 0
0 0 0 0 0 0 0 0 0 0 0 0 0 0 0 0 0 0 0 0 0 0 0 0 0 0 0 0 0 0 0 0 0 0 0 0 0 0
0 0 0 0 0 0 0 0 0 0 0 0 0 0 0 0 0 0 0 0 0 0 0 0 0 0 0 0 0 0 0 0 0 0 0 0 0 0
0 0 0 0 0 0 0 0 0 0 0 0 0 0 0 0 0 0 0 0 0 0 0 0 0 0 0 0 0 0 0 0 0 0 0 0 0 0
0 0 0 0 0 0 0 0 0 0 0 0 0 0 0 0 0 0 0 0 0 0 0 0 0 0 0 0 0 0 0 0 0 0 0 0 0 0
0 0 0 0 0 0 0 0 0 0 0 0 0 0 0 0 0 0 0 0 0 0 0 0 0 0 0 0 0 0 0 0 0 0 0 0 0 0
0 0 0 0 0 0 0 0 0 0 0 0 0 0 0 0 0 0 0 0 0 0 0 0 0 0 0 0 0 0 0 0 0 0 0 0 0 0
0 0 0 0 0 0 0 0 0 0 0 0 0 0 0 0 0 0 0 0 0 0 0 0 0 0 0 0 0 0 0 0 0 0 0 0 0 0
0 0 0 0 0 0 0 0 0 0 0 0 0 0 0 0 0 0 0 0 0 0 0 0 0 0 0 0 0 0 0 0 0 0 0 0 0 0
0 0 0 0 0 0 0 0 0 0 0 0 0 0 0 0 0 0 0 0 0 0 0 0 0 0 0 0 0 0 0 0 0 0 0 0 0 0
0 0 0 0 0 0 0 0 0 0 0 0 0 0 0 0 0 0 0 0 0 0 0 0 0 0 0 0 0 0 0 0 0 0 0 0 0 0
0 0 0 0 0 0 0 0 0 0 0 0 0 0 0 0 0 0 0 0 0 0 0 0 0 0 0 0 0 0 0 0 0 0 0 0 0 0
0 0 0 0 0 0 0 0 0 0 0 0 0 0 0 0 0 0 0 0 0 0 0 0 0 0 0 0 0 0 0 0 0 0 0 0 0 0
0 0 0 0 0 0 0 0 0 0 0 0 0 0 0 0 0 0 0 0 0 0 0 0 0 0 0 0 0 0 0 0 0 0 0 0 0 0
0 0 0 0 0 0 0 0 0 0 0 0 0 0 0 0 0 0 0 0 0 0 0 0 0 0 0 0 0 0 0 0 0 0 0 0 0 0
Wind_Speed
2 1 1 1 1 1 2 2 2 3 3 3 2 2 2 1 2 2 2 5 7 7 7 7 8 9 9 9 9 9 9 10 10 11 11 10 9 10
2 2 2 1 1 1 2 2 2 3 4 2 2 2 2 3 4 2 3 7 7 7 8 7 7 8 9 9 9 9 10 10 10 10 10 10 10 10
2 2 2 1 1 1 1 2 2 2 4 4 2 2 3 3 3 3 3 3 3 7 8 8 8 8 8 8 9 9 9 9 9 9 10 10 10 10
2 2 2 2 2 1 1 2 2 2 3 4 3 3 3 3 3 4 4 3 3 6 8 9 9 9 8 8 8 8 9 9 9 9 9 10 10 10
2 2 2 2 2 2 2 2 2 2 2 3 4 3 3 3 3 4 4 3 4 5 7 9 9 9 8 8 8 8 8 8 9 9 9 9 10 11
2 2 3 3 3 3 3 3 2 3 3 3 4 3 3 3 2 3 3 3 3 3 5 7 7 8 9 9 9 8 8 8 8 9 9 9 10 10
3 3 3 4 5 4 4 3 3 3 3 3 4 4 3 2 3 2 3 3 3 3 3 3 4 3 4 7 7 8 8 8 8 9 9 9 9 10
3 3 4 4 5 7 8 7 6 5 5 4 4 5 5 4 3 3 3 3 4 2 2 4 3 4 3 3 7 9 8 8 9 9 9 10 10 10
3 3 4 4 5 3 6 8 7 9 9 6 5 5 5 4 4 4 4 5 5 3 3 5 3 4 4 4 9 9 9 9 9 9 9 9 9 10
4 4 4 4 4 4 4 4 5 6 6 5 5 5 5 4 4 5 5 5 4 3 2 5 3 4 4 3 8 9 9 9 9 9 9 9 9 10
3 4 4 4 7 8 4 4 5 5 6 8 8 8 9 9 6 2 3 4 5 4 2 3 3 4 4 3 5 8 8 8 8 9 9 9 10 9
3 3 6 6 8 8 4 4 6 5 4 4 5 6 5 6 8 4 3 4 4 4 2 2 2 2 3 3 2 2 4 7 9 9 9 10 10 5
3 3 3 8 9 9 8 5 7 6 4 4 3 3 3 3 3 3 3 3 4 4 2 1 2 2 3 4 3 3 3 3 4 5 7 9 10 7
3 3 4 9 10 10 7 8 9 7 3 3 3 3 3 3 2 2 3 3 4 5 4 3 3 3 4 5 4 3 2 3 3 3 3 7 8 9
4 7 9 10 9 6 7 9 7 3 2 3 3 3 2 2 2 2 3 3 4 4 4 4 3 3 4 5 5 4 4 4 3 3 3 3 3 3
4 6 8 9 7 7 6 4 3 3 3 3 3 3 2 2 2 2 3 2 3 3 3 3 3 4 4 5 5 5 4 3 3 3 3 3 3 3
4 3 2 3 3 3 3 3 2 2 3 2 2 2 3 3 3 2 2 2 3 4 4 3 2 3 4 4 5 5 4 4 4 3 3 4 4 3
5 3 3 3 4 3 3 3 3 3 3 3 3 3 3 3 3 3 3 3 3 3 3 3 2 3 3 3 5 5 4 4 3 3 3 4 5 3
4 3 3 3 4 3 3 3 4 3 3 3 3 3 3 3 3 3 3 3 3 4 3 3 3 2 3 5 3 3 3 3 2 2 2 3 4 4
3 3 4 4 4 3 3 4 4 3 3 3 3 3 3 3 3 4 3 4 3 3 3 3 3 3 4 4 4 3 5 4 3 3 3 3 4 6
3 3 4 4 4 4 3 3 4 4 4 3 3 3 3 3 4 4 4 5 4 4 4 4 4 4 2 1 2 3 3 4 4 3 3 3 3 3
4 4 4 4 4 4 4 3 4 4 4 4 4 3 3 3 4 4 4 4 3 3 4 3 2 2 2 2 3 3 3 3 4 6 6 5 3 3
4 4 4 4 4 4 3 4 4 4 4 4 3 3 3 3 3 3 4 3 3 3 3 3 2 2 2 2 3 3 4 4 3 3 3 5 7 8
Wind_Direction
196 206 206 212 204 219 226 210 216 259 271 259 279 298 302 291 277 273 274 295 295 290 294 298 302 304 308 306 293 291 290 292 291 288 285 286 289 292
193 192 212 220 226 230 227 234 225 237 264 272 273 289 296 305 297 290 277 295 296 298 294 292 295 299 303 307 303 295 290 286 288 286 284 287 288 289
216 198 219 224 234 236 226 229 242 241 263 282 285 292 292 291 296 286 282 270 273 292 294 290 291 291 296 300 303 303 301 295 292 290 289 288 288 287
244 223 228 243 244 242 234 236 244 243 254 276 289 281 278 278 279 283 291 294 278 287 293 295 288 288 290 294 298 301 303 301 297 294 292 292 292 290
254 249 242 239 247 249 248 245 254 266 254 262 278 281 283 285 286 289 291 288 289 292 293 291 292 292 293 296 297 299 300 300 298 296 294 294 295 294
266 253 245 241 240 241 248 242 248 258 259 261 271 278 279 278 274 284 295 289 290 299 294 293 295 299 295 296 296 298 298 300 299 299 298 296 294 293
280 268 260 262 266 258 260 248 242 247 255 260 266 275 270 268 265 268 279 290 285 282 289 292 293 290 291 292 293 293 294 296 298 298 298 297 297 295
281 280 277 270 273 276 277 273 264 251 251 255 263 260 263 263 270 278 280 289 288 278 289 288 285 282 280 277 292 293 291 293 293 293 293 292 292 292
273 276 279 280 286 272 277 280 275 271 265 261 259 261 263 256 257 268 267 271 271 270 284 282 275 276 279 286 294 294 295 293 293 294 293 291 291 293
268 265 267 266 268 270 263 265 263 265 264 263 253 256 261 252 237 251 261 277 279 267 262 275 277 274 281 276 283 287 294 296 296 295 296 297 296 294
279 274 272 263 277 285 277 271 276 274 273 272 276 277 278 277 273 265 267 276 282 273 243 256 272 281 278 270 273 285 292 300 306 305 303 301 299 297
291 284 284 285 287 292 278 267 271 272 275 278 277 278 271 264 267 249 239 256 277 277 237 244 270 297 291 268 264 282 288 295 300 301 303 304 306 302
292 294 289 295 291 291 290 271 273 282 273 268 269 267 266 256 251 250 247 243 260 264 248 256 268 269 267 285 284 273 275 288 292 292 296 301 304 304
284 284 287 297 296 297 295 290 292 297 280 271 272 268 263 266 270 270 271 271 264 265 255 250 257 257 272 281 281 282 286 284 283 282 282 294 296 298
284 292 300 305 305 300 294 295 295 285 275 271 269 272 274 272 280 288 289 282 284 278 267 261 255 258 259 268 276 280 290 284 270 273 280 278 277 284
293 295 302 305 304 298 296 291 283 273 277 268 272 280 286 282 280 281 285 292 296 295 292 278 260 251 262 267 269 276 273 272 282 281 284 283 278 270
296 293 290 291 287 286 286 283 278 279 282 280 278 285 289 290 290 289 281 284 281 284 294 296 283 269 258 255 264 264 266 271 272 274 281 287 281 269
295 276 275 277 277 278 281 287 284 278 273 275 271 270 272 276 284 289 281 272 272 275 277 278 285 299 301 283 246 250 258 266 271 271 270 279 287 283
278 269 272 276 277 277 277 278 277 277 273 271 269 268 270 272 273 275 276 274 270 270 270 266 266 271 281 285 284 248 256 273 281 281 271 270 280 288
265 268 273 277 277 277 276 276 277 278 273 267 265 265 264 266 269 269 269 268 269 272 274 265 253 250 253 264 279 284 281 271 265 270 278 278 276 285
269 269 271 274 273 271 271 270 271 272 270 267 263 261 260 262 265 266 268 269 270 265 265 267 262 275 280 283 279 280 286 291 288 274 272 281 289 290
267 270 271 272 270 267 265 264 267 269 267 264 263 260 259 260 264 266 265 263 262 265 271 277 274 276 272 266 273 279 293 302 307 305 293 275 265 271
264 266 268 270 267 265 261 260 262 266 264 263 265 261 259 264 263 261 263 261 263 267 271 276 285 280 275 268 270 278 287 296 301 306 295 293 284 276